Total_Precipitation_Accumulation
0.88 0.76 0.68 0.70 0.72 0.68 0.63 0.57 0.52 0.51 0.47 0.47 0.43 0.36 0.35 0.37 0.32 0.29 0.28 0.27 0.29 0.39 0.50 0.59 0.66 0.69 0.71 0.70 0.68 0.67 0.62 0.59 0.58 0.58 0.57 0.54 0.51 0.49 0.50 0.53 0.53 0.53 0.55
1.19 1.05 0.93 0.86 0.84 0.82 0.79 0.73 0.67 0.66 0.62 0.56 0.52 0.44 0.38 0.39 0.42 0.41 0.38 0.34 0.30 0.31 0.41 0.58 0.71 0.79 0.82 0.83 0.80 0.74 0.66 0.59 0.57 0.61 0.59 0.56 0.56 0.56 0.56 0.52 0.51 0.52 0.55
1.31 1.25 1.19 1.15 1.09 1.05 0.99 0.94 0.89 0.86 0.78 0.67 0.60 0.56 0.50 0.46 0.46 0.50 0.50 0.45 0.39 0.34 0.39 0.54 0.69 0.81 0.85 0.87 0.91 0.89 0.82 0.72 0.65 0.60 0.58 0.57 0.55 0.56 0.60 0.59 0.56 0.53 0.52
1.46 1.35 1.26 1.18 1.16 1.22 1.23 1.14 1.05 1.00 0.88 0.77 0.68 0.62 0.54 0.52 0.50 0.52 0.55 0.56 0.51 0.42 0.38 0.44 0.54 0.69 0.79 0.89 1.00 1.09 1.11 0.97 0.83 0.73 0.65 0.59 0.56 0.54 0.53 0.54 0.56 0.54 0.52
1.68 1.59 1.42 1.32 1.31 1.21 1.21 1.23 1.16 1.05 0.98 0.93 0.85 0.76 0.65 0.56 0.52 0.50 0.49 0.50 0.52 0.47 0.42 0.44 0.47 0.54 0.65 0.81 0.97 1.17 1.28 1.20 1.03 0.90 0.79 0.71 0.66 0.61 0.56 0.55 0.54 0.53 0.54
1.81 1.75 1.58 1.52 1.56 1.44 1.28 1.17 1.16 1.12 1.02 1.01 1.00 0.93 0.84 0.75 0.68 0.59 0.54 0.50 0.48 0.46 0.45 0.41 0.40 0.42 0.49 0.64 0.87 1.06 1.16 1.24 1.22 1.11 0.98 0.87 0.80 0.76 0.73 0.72 0.69 0.65 0.63
1.88 1.88 1.74 1.63 1.63 1.54 1.39 1.30 1.21 1.20 1.18 1.15 1.21 1.12 0.99 0.93 0.87 0.80 0.70 0.63 0.59 0.55 0.51 0.48 0.44 0.40 0.38 0.44 0.60 0.80 0.90 1.01 1.12 1.17 1.17 1.12 1.03 0.96 0.91 0.90 0.88 0.84 0.81
1.90 1.88 1.84 1.78 1.71 1.67 1.61 1.55 1.49 1.40 1.36 1.37 1.40 1.42 1.27 1.11 0.92 0.82 0.80 0.75 0.68 0.64 0.59 0.53 0.47 0.44 0.41 0.39 0.45 0.55 0.65 0.80 0.96 1.11 1.18 1.20 1.19 1.17 1.16 1.16 1.14 1.09 1.02
1.97 1.89 1.88 1.91 1.85 1.76 1.66 1.62 1.57 1.52 1.47 1.44 1.45 1.56 1.42 1.16 0.91 0.79 0.73 0.71 0.70 0.68 0.65 0.63 0.62 0.57 0.52 0.49 0.49 0.53 0.55 0.62 0.78 1.01 1.20 1.28 1.28 1.31 1.35 1.42 1.47 1.44 1.33
2.01 1.97 1.93 1.93 1.91 1.84 1.68 1.64 1.58 1.51 1.50 1.47 1.44 1.39 1.29 1.11 1.03 0.92 0.77 0.70 0.70 0.69 0.71 0.70 0.71 0.72 0.69 0.66 0.66 0.67 0.64 0.64 0.77 0.96 1.19 1.41 1.54 1.58 1.60 1.60 1.63 1.65 1.59
2.02 1.96 1.92 1.91 1.83 1.78 1.74 1.77 1.70 1.65 1.57 1.49 1.43 1.39 1.39 1.22 1.05 1.03 0.90 0.75 0.75 0.73 0.76 0.81 0.79 0.80 0.79 0.75 0.69 0.71 0.78 0.80 0.95 1.11 1.30 1.50 1.67 1.81 1.89 1.89 1.88 1.88 1.84
2.06 1.97 1.87 1.82 1.78 1.77 1.76 1.79 1.83 1.78 1.73 1.66 1.56 1.44 1.45 1.43 1.26 1.19 1.13 0.93 0.85 0.78 0.75 0.78 0.82 0.82 0.80 0.77 0.74 0.81 0.75 0.78 0.87 1.01 1.25 1.48 1.62 1.74 1.89 2.01 2.04 1.99 1.96
1.81 1.79 1.80 1.75 1.69 1.64 1.67 1.71 1.78 1.79 1.74 1.71 1.64 1.55 1.50 1.44 1.34 1.33 1.30 1.15 1.02 0.89 0.83 0.80 0.78 0.79 0.79 0.78 0.78 0.87 0.80 0.82 0.87 0.97 1.16 1.36 1.42 1.46 1.60 1.82 2.04 2.16 2.21
1.71 1.70 1.70 1.70 1.70 1.67 1.64 1.68 1.71 1.73 1.71 1.66 1.56 1.49 1.44 1.37 1.37 1.40 1.38 1.41 1.37 1.15 0.97 0.85 0.77 0.77 0.80 0.84 0.92 1.04 0.93 1.05 1.05 1.10 1.21 1.33 1.34 1.28 1.31 1.43 1.64 1.84 1.98
1.58 1.58 1.57 1.58 1.60 1.62 1.61 1.64 1.67 1.65 1.65 1.63 1.57 1.48 1.37 1.25 1.23 1.26 1.29 1.38 1.53 1.46 1.18 0.90 0.84 0.88 0.94 0.97 1.09 1.04 0.98 1.17 1.21 1.21 1.25 1.29 1.30 1.23 1.19 1.21 1.29 1.38 1.46
1.40 1.42 1.41 1.40 1.42 1.44 1.45 1.50 1.52 1.50 1.49 1.47 1.46 1.47 1.42 1.31 1.25 1.27 1.32 1.39 1.48 1.54 1.39 1.01 0.87 0.89 1.02 1.11 1.25 1.14 1.04 1.23 1.21 1.19 1.21 1.18 1.14 1.10 1.06 1.06 1.09 1.19 1.25
1.22 1.22 1.22 1.23 1.22 1.24 1.27 1.31 1.30 1.32 1.38 1.38 1.38 1.41 1.42 1.39 1.38 1.36 1.39 1.45 1.52 1.60 1.59 1.26 1.05 1.00 1.05 1.09 1.12 1.07 1.02 1.03 1.03 1.15 1.09 1.03 1.00 0.97 0.95 0.91 0.93 0.97 1.05
1.08 1.11 1.13 1.11 1.08 1.05 1.09 1.12 1.14 1.15 1.19 1.23 1.29 1.34 1.38 1.39 1.43 1.45 1.48 1.50 1.50 1.51 1.52 1.41 1.17 1.03 0.98 0.95 0.96 0.96 0.93 0.88 0.85 0.99 0.98 0.93 0.90 0.90 0.91 0.88 0.85 0.86 0.91
0.95 0.97 1.01 1.02 1.01 0.98 1.01 1.02 1.01 1.02 1.04 1.07 1.12 1.18 1.20 1.26 1.32 1.35 1.40 1.44 1.41 1.39 1.38 1.31 1.12 0.95 0.88 0.88 0.93 0.93 0.87 0.81 0.74 0.81 0.86 0.84 0.80 0.81 0.85 0.82 0.81 0.80 0.76
0.77 0.81 0.86 0.90 0.91 0.92 0.95 1.00 1.03 1.02 0.99 0.99 1.00 1.05 1.09 1.13 1.17 1.23 1.31 1.35 1.34 1.33 1.33 1.31 1.20 1.02 0.89 0.82 0.85 0.88 0.86 0.78 0.71 0.67 0.79 0.80 0.80 0.78 0.77 0.70 0.65 0.64 0.63
0.60 0.61 0.67 0.75 0.81 0.83 0.87 0.91 0.94 0.97 0.98 0.98 1.00 1.04 1.11 1.24 1.26 1.21 1.19 1.18 1.19 1.25 1.28 1.28 1.17 1.03 0.89 0.81 0.81 0.76 0.77 0.79 0.78 0.71 0.73 0.74 0.73 0.73 0.74 0.74 0.71 0.64 0.64
0.52 0.55 0.59 0.62 0.69 0.76 0.96 0.95 0.87 0.86 0.95 1.00 1.02 1.01 1.05 1.17 1.16 1.15 1.11 1.08 1.10 1.18 1.22 1.17 1.05 0.89 0.73 0.63 0.65 0.72 0.79 0.88 0.90 0.71 0.71 0.76 0.73 0.76 0.73 0.71 0.76 0.72 0.70
0.51 0.55 0.58 0.62 0.67 0.81 1.00 0.97 0.99 0.89 0.91 0.96 0.99 0.97 0.93 0.89 0.94 0.83 0.90 0.98 1.00 1.00 0.96 0.92 0.90 0.76 0.66 0.61 0.70 0.83 0.85 0.84 0.75 0.62 0.70 0.84 0.80 0.77 0.70 0.72 0.79 0.74 0.74
0.66 0.71 0.75 0.77 0.81 0.92 1.01 0.93 0.91 0.82 0.84 0.85 0.83 0.82 0.77 0.72 0.71 0.73 0.75 0.81 0.74 0.70 0.70 0.66 0.65 0.63 0.62 0.66 0.76 0.87 0.93 0.97 0.87 0.78 0.78 0.88 0.79 0.74 0.66 0.66 0.76 0.73 0.73
0.96 0.93 0.89 0.84 0.80 0.81 0.85 0.81 0.77 0.70 0.71 0.69 0.65 0.64 0.64 0.61 0.70 0.80 0.74 0.70 0.64 0.61 0.65 0.69 0.71 0.72 0.78 0.85 0.88 0.96 1.05 1.17 1.07 0.83 0.71 0.72 0.67 0.64 0.64 0.65 0.69 0.75 0.72
0.92 0.90 0.87 0.81 0.73 0.66 0.64 0.61 0.59 0.54 0.53 0.50 0.47 0.47 0.54 0.56 0.68 0.77 0.69 0.67 0.64 0.53 0.52 0.57 0.61 0.61 0.61 0.67 0.81 0.81 0.90 1.16 1.08 0.83 0.55 0.59 0.64 0.72 0.90 0.68 0.60 0.64 0.69